Regional Weather Roundup
Issued by NWS

Home | Current Version | Previous Version | Graphics & Text | Print | Product List | Glossary On
Versions: 1 2 3 4 5 6 7 8 9 10 11 12 13 14 15 16 17 18 19 20 21 22 23 24 25 26 27 28 29 30 31 32 33 34 35 36 37 38 39 40 41 42 43 44 45 46 47 48 49 50
000
ASUS43 KOAX 021202
RWRNE

WEATHER ROUNDUP FOR NEBRASKA
NATIONAL WEATHER SERVICE OMAHA NE
700 AM CDT SUN AUG 02 2015

NOTES: SATELLITE DATA IS BEING USED TO AUGMENT CLOUD COVER ABOVE
       12000 FEET.
       "FAIR" INDICATES FEW OR NO CLOUDS BELOW 12,000 FEET WITH NO
       SIGNIFICANT WEATHER AND/OR OBSTRUCTIONS TO VISIBILITY.

  * THESE STATIONS DO NOT REPORT WEATHER SUCH AS RAIN...SNOW OR FOG.

NEZ001>004-019>022-054>056-021300-
NEBRASKA PANHANDLE

CITY           SKY/WX    TMP DP  RH WIND       PRES   REMARKS
SCOTTSBLUFF    CLEAR     60  56  86 CALM      29.99F
6HR MIN TEMP:  59; 6HR MAX TEMP:  74;

ALLIANCE       CLEAR     54  52  93 CALM      29.98R
6HR MIN TEMP:  54; 6HR MAX TEMP:  65;

CHADRON        CLEAR     64  55  72 NW5       29.94R
6HR MIN TEMP:  58; 6HR MAX TEMP:  72;

KIMBALL        CLEAR     57  54  90 CALM      30.04S
SIDNEY         CLEAR     59  53  80 NW10      30.02R
6HR MIN TEMP:  57; 6HR MAX TEMP:  70;

$$

NEZ057>060-069>072-079>082-021300-
SOUTHWEST NEBRASKA

CITY           SKY/WX    TMP DP  RH WIND       PRES   REMARKS
NORTH PLATTE   CLEAR     58  56  93 CALM      29.94R
6HR MIN TEMP:  57; 6HR MAX TEMP:  63;

IMPERIAL       CLEAR     62  57  83 CALM      29.96S
6HR MIN TEMP:  61; 6HR MAX TEMP:  74;

LEXINGTON      CLEAR     64  61  91 S5        29.92S
MCCOOK         CLEAR     65  61  87 S3        29.94R
6HR MIN TEMP:  65; 6HR MAX TEMP:  76;

OGALLALA       CLEAR     57  56  97 CALM      29.96S
$$

NEZ005>010-023>029-035>040-094-021300-
NORTH CENTRAL NEBRASKA

CITY           SKY/WX    TMP DP  RH WIND       PRES   REMARKS
AINSWORTH      CLEAR     64  58  79 W8        29.88S
BROKEN BOW     CLEAR     58  55  90 CALM      29.90F
6HR MIN TEMP:  58; 6HR MAX TEMP:  66;

O`NEILL        CLEAR     62  59  90 SW6       29.83S
ORD            CLEAR     59  57  93 CALM      29.86S
6HR MIN TEMP:  57; 6HR MAX TEMP:  65;

THEDFORD       CLEAR     57  56  94 CALM      29.93R
$$

NEZ041-046>049-061>064-073>077-083>087-021300-
SOUTH CENTRAL NEBRASKA

CITY           SKY/WX    TMP DP  RH WIND       PRES   REMARKS
GRAND ISLAND   CLEAR     69  64  84 SW10      29.89S
6HR MIN TEMP:  67; 6HR MAX TEMP:  74;

AURORA         PTCLDY    68  67  94 SW8       29.89R
HASTINGS       PTCLDY    68  64  87 SW3       29.90S
6HR MIN TEMP:  66; 6HR MAX TEMP:  73;

HEBRON         CLEAR     71  67  85 SW7       29.90S
HOLDREGE       CLEAR     66  63  89 CALM      29.93R
KEARNEY *      CLEAR     66  61  82 SW6       29.92R
YORK           PTCLDY    66  66 100 S8        29.88S
$$

NEZ011>018-030>034-042>045-021300-
NORTHEAST NEBRASKA

CITY           SKY/WX    TMP DP  RH WIND       PRES   REMARKS
NORFOLK        CLEAR     65  64  97 S5        29.82R
6HR MIN TEMP:  63; 6HR MAX TEMP:  68;

ALBION         CLEAR     66  61  83 CALM      29.84S
BLAIR          PTCLDY    71  67  86 S10       29.84F
COLUMBUS *     CLEAR     64  57  77 CALM      29.85R
FREMONT        CLEAR     74  68  81 S9        29.84S
TEKAMAH        CLEAR     70  68  93 S6        29.81S
6HR MIN TEMP:  69; 6HR MAX TEMP:  74; 6HR PCP:  0.25;

WAYNE          CLEAR     64  63  94 S3        29.82R
$$

NEZ050>053-065>068-078-088>093-021300-
SOUTHEAST NEBRASKA

CITY           SKY/WX    TMP DP  RH WIND       PRES   REMARKS
LINCOLN        CLEAR     72  68  87 S9        29.85F
6HR MIN TEMP:  71; 6HR MAX TEMP:  75;

OMAHA EPPLEY   MOCLDY    74  70  87 S8        29.84S
6HR MIN TEMP:  73; 6HR MAX TEMP:  76; 6HR PCP:  0.01;

BEATRICE       PTCLDY    71  69  93 S8        29.89S
FALLS CITY     PTCLDY    72  69  90 S7        29.88S
6HR MIN TEMP:  71; 6HR MAX TEMP:  73;

NEBRASKA CITY  PTCLDY    71  70  97 SW10      29.87S
PLATTSMOUTH    PTCLDY    69  68  96 E3        29.86S
$$

NEZ044-045-051>053-067-021300-
OMAHA AREA

CITY           SKY/WX    TMP DP  RH WIND       PRES   REMARKS
OMAHA EPPLEY   MOCLDY    74  70  87 S8        29.84S
6HR MIN TEMP:  73; 6HR MAX TEMP:  76; 6HR PCP:  0.01;

BLAIR          PTCLDY    71  67  86 S10       29.84F
FREMONT        CLEAR     74  68  81 S9        29.84S
MILLARD        PTCLDY    73  70  91 SE3       29.85S
PLATTSMOUTH    PTCLDY    69  68  96 E3        29.86S
WAHOO          FAIR      69  67  92 S5        29.85S
$$



USA.gov is the U.S. government's official web portal to all federal, state and local government web resources and services.